Погода в Буденновске

Погода в Буденновске : погода сейчас, прогноз погоды и архив. Всё, что Вы хотите узнать о погоде в Буденновске!

Хотите узнать прогноз погоды в Буденновске? Тогда Вам сюда: Погода в Буденновске

Поиск расширенной информации на нашем сайте:

Другие новости

Новости СМИ2

Главная страница сайта

Новости сайта

03.07.2017

Напоминаем, что на нашем специализированном сайте Метеоцентр.Азия вы можете получить высокодетализированные автоматические прогнозы погоды по пунктам России, СНГ и мира в авиационном формате (включающие направление и скорость ветра, видимость, явления погоды, количество и форму облачности, нижнюю и верхнюю границу облачности).

Рекомендуем: реставрация ванн

Погода в Буденновске - сегодня

Время (UTC), дата Ветер
(°,м/с) 
Видим.   Явления Облачность Т
(°С)
Тd
(°С)
f(%) Тe
(°С)
Pmin
(гПа)
dP
(гПа)
Po
(мм)
O2
(г/м3)
Тmin Tmax R s Состояние
почвы
18 17.11.17 080 (В) 4000 м  дымка{морось}  10/10 600 м 
[Sc]
+4.1 +2.1 87 +4  1028.6  -0.2  759  301           
21 17.11.17 110 (В) 4000 м  дымка  3/0 средняя 
[Ac trans]
+1.5 -0.4 87 1027.9  -0.8  758  304           
00 18.11.17 100 (В) 4000 м  дымка  3/0 средняя 
[Ac trans]
+0.1 -1.1 92 -2  1027.6  -0.5  758  305           
03 18.11.17 100 (В) 4000 м  дымка  4/3 300 м средняя 
[Sc|Ac trans]
+0.5 -0.6 92 -1  1026.4  -1.1  757  305  +0.1         
06 18.11.17 070 (В) 4000 м  дымка  8/6 600 м средняя 
[Sc|Ac trans]
+2 +0.4 89 +1  1025.6  -0.6  757  303           
09 18.11.17 090 (В) 4000 м  дымка  10/10 600 м 
[Sc]
+5.3 +3 85 +4  1024.1  -1.3  756  298           
12 18.11.17 110 (В) 4000 м  в посл. час ливневой дождь  10/10 600 м кучево-дожд. 
[Cb calv]
+7 +5.3 89 +5  1022.9  -1.1  755  296           
15 18.11.17 100 (В) 4000 м  слаб. морось  10/10 300 м 
[St]
+6.7 +6.1 96 +6  1022.2  -0.6  754  296    +7.2  0.1     
18 18.11.17 110 (В) 2000 м  слаб. морось{туман}  ?/?  
+7 +6.5 97 +6  1020.8  -1.3  753  295           
21 18.11.17 140 (ЮВ) 0500 м  туман{морось}  ?/?  
+7.3 +6.9 97 +8  1019.7  -1.1  752  294           
00 19.11.17 170 (Ю) 0500 м  туман{морось}  ?/?  
+5.8 +5.3 97 +7  1019  -0.8  752  296           
03 19.11.17 160 (Ю) 2000 м  дымка{туман}  10/10 300 м 
[St]
+5.6 +5.1 97 +6  1018.2  -0.8  751  296  +5.5    0.3     
06 19.11.17 150 (ЮВ) 2000 м  дымка{туман}  10/10 300 м 
[St]
+5.8 +5.4 97 +7  1018.1  751  295  +5.1         
09 19.11.17 160 (Ю) 2000 м  дымка  10/10 300 м 
[St]
+8.4 +7.3 93 +9  1016.5  -1.4  750  292           
12 19.11.17 120 (ЮВ) 4000 м  дымка  10/10 600 м 
[Sc]
+10 +8.5 90 +10  1015.4  -1  749  290           
15 19.11.17 130 (ЮВ) 4000 м  слаб. ливневой дождь  10/10 600 м кучево-дожд. 
[Cb calv]
+10.3 +8.9 91 +10  1015.3  0.1  749  289    +10.4  0.0     
18 19.11.17 140 (ЮВ) 4000 м  дымка{ливн. осадки}  10/10 600 м 
[Sc]
+9.7 +8.7 93 +11  1014.3  -1  749  290           
21 19.11.17 120 (ЮВ) 4000 м  дымка  10/10 600 м 
[Sc]
+9.9 +8.9 93 +10  1013.7  -0.6  748  289           
00 20.11.17 100 (В) 4000 м  дымка  10/10 600 м 
[Sc]
+9.3 +8.6 95 +10  1013.1  -0.6  748  290           
03 20.11.17 120 (ЮВ) 4000 м  дымка  10/10 600 м 
[Sc]
+8.5 +7.1 91 +9  1012.4  -0.8  747  291  +8.5    0.0     
06 20.11.17 140 (ЮВ) 4000 м  дымка  10/10 300 м 
[St]
+8.5 +6.8 89 +10  1013.3  0.8  748  291  +7.9         
09 20.11.17 250 (З) 4000 м  дымка  10/10 600 м 
[Sc]
+9.8 +7.3 84 +11  1011.8  -1.3  747  289           
12 20.11.17 100 (В) 10 км    10/10 600 м 
[Sc]
+11.5 +8 79 +13  1010.7  -1  746  287           
15 20.11.17 080 (В) 4000 м  дымка  10/10 600 м 
[Sc]
+10.4 +8.6 89 +12  1010.4  -0.3  746  288    +11.8       
18 20.11.17 тихо ()   4000 м  дымка  10/10 600 м 
[Sc]
+9.6 +8 90 +10  1009.6  -0.9  745  289           
Время (UTC), дата Ветер
(°,м/с) 
Видим.   Явления Облачность Т
(°С)
Тd
(°С)
f(%) Тe
(°С)
Pmin
(гПа)
dP
(гПа)
Po
(мм)
O2
(г/м3)
Тmin Tmax R s Состояние
почвы

Для получения пояснительной информации подведите курсор к названию столбца.

ПОГОДА в Буденновске - архив

Всё, что Вы хотите узнать о погоде в Буденновске - удобно и подробно!

Выберите нужную дату (начиная с 1 января 2015* года) и нажмите кнопку "Найти".
Будут отображены архивные сводки погоды по пункту Буденновск, начиная с указанной даты.


Отображать данные в формате CSV (для использования в таблицах Excel)


Внимание! Наш архив погоды предназначен исключительно для личного некоммерческого использования в познавательных целях. Если Вам необходимы официальные справки о состоянии погоды (для производственных, юридических, коммерческих и т.п. целей), обращайтесь в органы Росгидромета.

*Примечание: данная дата относится к архиву по метеостанциям СССР (Россия, СНГ, Балтия).
Архив по метеостанциям Зарубежной Европы и Азии (кроме Китая) хранится 10 дней, по другим регионам земного шара (Китай, Африка, Америка, Австралия, Океания) - 1 день.

Буденновск - район местоположения метеостанции


Название, широта, долгота, высота метеостанции:
Буденновск (Прикумск) 44.8°ш. 44.1°д. 136 м над ур. моря [Российская Федерация]

Дополнительная информация

В oтличие oт бoльшинства пoгoдных сайтoв мы публикуем пoдрoбную метеoинфoрмацию в детальнoм прoфессиoнальнoм фoрмате.

Характеристики температуры и влажнoсти вoздуха измеряются на высoте 2 м в тени вдали oт зданий и деревьев.
Скoрoсть ветра измеряется на высoте 10 м (на урoвне рoста челoвека скoрoсть ветра ниже в 1.5-2 раза). Если метеoстанция нахoдится в гoрoде или в лесу, тo скoрoсть ветра занижена на 2-4 м/с пo сравнению с oткрытым местoм. Скoрoсть ветра над акватoриями крупных рек и oзёр, а также на вершинах хoлмoв на 2-5 м/с выше, чем в oбычных услoвиях.
Атмoсфернoе давление в разных тoчках местнoсти мoжет значительнo oтличаться oт давления на метеoстанции, в зависимoсти oт услoвий рельефа (при пoдъёме на 10 м давление пoнижается примернo на 1 мм рт.ст.).